www.pogodaiklimat.ru

Погода и климат >> Архив погоды >> Южная Африка >> Хоэдспруит


ПОГОДА в Хоэдспруите

  • Прогноз погоды в Хоэдспруите
  • Монитор погоды в Хоэдспруите

АРХИВ ПОГОДЫ в Хоэдспруите

Время (UTC), дата Ветер
(напр.,м/с)
 
Видим.   Явления Облачность Т
(С)
Тd
(С)
f
(%)
Тe
(С)
Тes
(С)
Комфортность P
(гПа)
Po
(гПа)
Тmin
(С)
Tmax
(С)
R
(мм)
R24
(мм)
S
(см)
06 19.06 Ю 4 н/о н/о +15.8 +2.6 41 +15 +15 969.5 +10.8
09 19.06 Ю 6 н/о н/о +20.4 +3.7 33 +21 +21 комфорт 970.1 +10.8 +20.9
12 19.06 ЮВ 6 н/о н/о +22.4 +4.6 31 +23 +23 комфорт 967.7 +10.8 +22.7
15 19.06 ЮВ 4 н/о н/о +19.6 +6.4 42 +20 +20 967.5 +19.4 +22.7
18 19.06 ЮЗ 3 н/о н/о +15.2 +6.3 55 +15 +15 968.6 +14.3 +22.7
21 19.06 Ю 3 н/о н/о +14.6 +10.2 75 +14 +14 969.7 +13.2 +22.7
00 20.06 ЮЗ 2 н/о н/о +12.5 +9.5 82 +12 +12 968.6 +12.4 +22.7
03 20.06 З 2 н/о н/о +9.8 +7.0 83 +9 +9 967.7 +9.7 +22.7
06 20.06 ЮЗ 3 н/о н/о +16.2 +7.2 55 +16 +16 969.2 +9.2
09 20.06 Ю 4 н/о н/о +20.3 +6.7 41 +21 +21 комфорт 969.4 +9.2 +21.2
12 20.06 Ю 5 н/о н/о +22.5 +6.4 35 +23 +23 комфорт 966.5 +9.2 +23.3
15 20.06 ЮВ 5 н/о н/о +20.4 +7.2 42 +21 +21 комфорт 966.5 +20.3 +23.3
18 20.06 Ю 3 н/о н/о +15.1 +8.1 63 +15 +15 967.9 +14.8 +23.3
21 20.06 Ю 3 н/о н/о +14.5 +9.7 73 +14 +14 968.2 +13.3 +23.3
00 21.06 Ю 3 н/о н/о +15.3 +10.1 71 +15 +15 967.1 +13.3 +23.3
03 21.06 Ю 3 н/о н/о +13.2 +9.6 79 +12 +12 966.7 +13.0 +23.3
06 21.06 Ю 2 н/о н/о +16.5 +9.9 65 +17 +17 967.8 +13.0
12 21.06 ЮЗ 2 н/о н/о +23.7 +11.2 45 +25 +25 комфорт 964.3 +13.0 +24.3
15 21.06 В 2 н/о н/о +23.0 +10.6 45 +25 +25 комфорт 963.4 +22.3 +25.2
18 21.06 СВ 2 н/о н/о +18.0 +11.4 65 +19 +19 963.8 +17.7 +25.2
21 21.06 ЮЗ 1 н/о н/о +16.0 +11.0 72 +17 +17 963.5 +15.3 +25.2
00 22.06 ЮВ 2 н/о н/о +13.9 +11.2 84 +13 +13 962.7 +12.8 +25.2
03 22.06 З 1 н/о н/о +12.7 +11.9 95 +13 +13 961.6 +12.5 +25.2
06 22.06 З 1 н/о н/о +14.7 +12.0 84 +15 +15 962.0 +11.7
09 22.06 С 3 н/о н/о +22.6 +11.5 49 +25 +25 комфорт 961.8 +11.7 +23.2
12 22.06 С 4 н/о н/о +25.3 +8.5 34 +26 +26 жарко 958.8 +11.7 +25.9
15 22.06 С 3 н/о н/о +24.2 +7.5 34 +24 +24 комфорт 957.8 +24.1 +26.5
18 22.06 СВ 2 н/о н/о +18.9 +8.0 49 +20 +20 958.8 +18.6 +26.5
21 22.06 З 2 н/о н/о +17.0 +8.2 56 +18 +18 958.5 +16.2 +26.5
00 23.06 З 2 н/о н/о +15.9 +7.9 59 +16 +16 958.0 +15.3 +26.5
03 23.06 З 1 н/о н/о +13.9 +7.4 65 +14 +14 957.4 +12.8 +26.5
06 23.06 З 1 н/о н/о +16.5 +8.0 57 +17 +17 957.9 +12.8
09 23.06 З 3 н/о н/о +26.4 +5.0 25 +26 +26 жарко 958.3 +12.8 +26.5
12 23.06 СЗ 4 н/о н/о +27.7 +3.0 20 +26 +26 жарко 955.5 +12.8 +27.7
15 23.06 З 2 н/о н/о +25.0 +3.8 25 +24 +24 комфорт 955.7 +25.0 +28.0
18 23.06 ЮЗ 2 н/о н/о +20.1 +3.4 33 +21 +21 комфорт 956.7 +19.9 +28.0
21 23.06 Ю 7 н/о н/о +18.2 +7.1 48 +18 +18 958.9 +17.9 +28.0
00 24.06 Ю 4 н/о н/о +16.0 +12.2 78 +15 +15 958.9 +15.8 +28.0
03 24.06 Ю 4 н/о н/о +15.2 +11.2 77 +14 +14 958.6 +14.3 +28.0
06 24.06 Ю 3 н/о н/о +17.3 +11.1 67 +17 +17 960.4 +14.3
09 24.06 Ю 3 н/о н/о +20.8 +10.1 50 +23 +23 комфорт 960.8 +14.3 +21.0
12 24.06 В 2 н/о н/о +23.8 +8.4 37 +24 +24 комфорт 957.9 +14.3 +24.1
15 24.06 СВ 1 н/о н/о +22.2 +7.0 37 +23 +23 комфорт 958.3 +22.0 +24.5
18 24.06 В 2 н/о н/о +18.4 +8.4 52 +19 +19 959.3 +18.4 +24.5
21 24.06 ЮЗ 3 н/о н/о +15.3 +9.4 68 +15 +15 960.1 +14.6 +24.5
00 25.06 Ю 2 н/о н/о +13.2 +10.4 83 +12 +12 960.3 +13.0 +24.5
03 25.06 ЮЗ 2 н/о н/о +12.0 +11.0 94 +11 +11 960.5 +11.9 +24.5
06 25.06 Ю 1 н/о н/о +14.9 +12.7 87 +15 +15 963.2 +11.4
09 25.06 СВ 1 н/о н/о +20.3 +12.1 59 +23 +23 комфорт 962.8 +19.0 +20.5
12 25.06 ЮВ 3 н/о н/о +23.6 +9.0 39 +24 +24 комфорт 960.8 +19.0 +23.9 0.2
15 25.06 ЮВ 3 н/о н/о +21.6 +8.9 44 +23 +23 комфорт 961.4 +21.3 +24.8
18 25.06 Ю 3 н/о н/о +17.1 +9.1 59 +17 +17 963.3 +16.7 +24.8 0.2
21 25.06 Ю 3 н/о н/о +15.1 +11.9 81 +14 +14 964.8 +13.5 +24.8
00 26.06 Ю 4 н/о н/о +15.4 +13.9 91 +14 +14 964.9 +13.5 +24.8 0.2
03 26.06 Ю 2 н/о н/о +14.1 +12.9 92 +13 +13 964.9 +13.5 +24.8

 

Местоположение метеостанции Хоэдспруит (Южная Африка): широта -24.35 долгота 31.05 высота над уровнем моря 524 м.

В архиве по умолчанию представлена погода в Хоэдспруите за последнюю неделю. Архивные данные за месяц целиком и за предыдущие месяцы, начиная с января 2011 года, Вы можете получить, выбрав интересующий диапазон дат из раскрывающегося списка и нажав кнопку "Ввод!".


*Определитесь, кто Вы:
робот инопланетянин человек

Внимание! Время в таблицах - всемирное. Для получения местного времени необходимо прибавить поправку, которая равна 2 ч.

Смотрите также архив погоды в соседних городах и на ближайших метеорологических станциях:

Погода на Базе ВВС Hoedspruit (Южная Африка) (3 км)
Погода в Пхалаборве (Южная Африка) (47 км)
Погода в Граскопе (Южная Африка) (68 км)
Погода в Граскоп-Скуле (Южная Африка) (68 км)
Погода в Вувулане (Свазиленд) (88 км)
Погода в Скукузе (Южная Африка) (89 км)
Погода в Линденбурге 2 (Южная Африка) (102 км)
Погода в Линденбурге (Южная Африка) (103 км)
Погода в Тзанеене (Южная Африка) (108 км)
Погода в Тзанеен-Греншоек (Южная Африка) (119 км)

Пояснения к столбцам:

Ветер - указаны скорость ветра в м/с - средняя за 10 мин, порывы в срок и между сроками (в фигурных скобках) и направление, откуда дует ветер: С - северный, СВ - северо-восточный, В - восточный, ЮВ - юго-восточный, Ю - южный, ЮЗ - юго-западный, З - западный, СЗ - северо-западный.
Видимость - горизонтальная дальность видимости в метрах или километрах. При видимости от 1 до 10 км при отсутствии осадков обычно наблюдается дымка, при ухудшении видимости до 1 км и менее - туман. В сухую погоду видимость может ухудшаться дымом, пылью или мглою.
Явления - указаны атмосферные явления, наблюдавшиеся в срок или в последний час перед сроком; фигурными скобками обозначены явления, наблюдавшиеся между сроками (за 1-3 часа до срока); квадратными скобками обозначены град или гололедные отложения с указанием их диаметра в мм.
Облачность - указаны через наклонную черту общая и нижняя облачность в баллах и высота нижней границы облаков в метрах; квадратными скобками обозначены формы облаков: Ci - перистые, Cs - перисто-слоистые, Cc - перисто-кучевые, Ac - высококучевые, As - высокослоистые, Sc - слоисто-кучевые, Ns - слоисто-дождевые, Cu - кучевые, Cb - кучево-дождевые. Подробнее классификацию облаков см. в Атласе облаков (PDF).
T - Температура воздуха - температура, измеренная на высоте 2 м над землей.
Td - Температура точки росы - температура, при понижении до которой содержащийся в воздухе водяной пар достигнет насыщения.
f - Относительная влажность воздуха - влажноcть воздуха, измеренная на высоте 2 м над землей.
Te - Эффективная температура - температура, которую ощущает одетый по сезону человек в тени. Характеристика душности погоды. При расчете учитывается влияние влажности воздуха и скорости ветра на теплоощущения человека.
Tes - Эффективная температура на солнце - температура, которую ощущает человек, с поправкой на солнечный нагрев. Характеристика знойности погоды. Зависит от высоты солнца над горизонтом, облачности и скорости ветра. Ночью, в пасмурную погоду, а также при ветре 12 м/с и более поправка равна нулю.
P - Атмосферное давление - приведенное к уровню моря атмосферное давление.
Po - Атмосферное давление - измеренное на уровне метеостанции атмосферное давление.
Tmin - Минимальная температура - минимум температуры воздуха на высоте 2 м над землей.
Tmax - Максимальная температура - максимум температуры воздуха на высоте 2 м над землей.
R - Количество осадков - Количество выпавших осадков за период времени, мм. При наведении курсора мыши на число - период времени, за который выпало указанное количество осадков.
R24 - Количество осадков - Количество выпавших осадков за 24 часа, мм.
S - Снежный покров - Высота снежного покрова, см. При наведении курсора мыши на число - состояние снежного покрова и степень покрытия местности в баллах.